METEOR 2-8 DEB

Satellite information

Favourite Embed

Satellite Type and Status

DEBRISIN ORBIT

Key statistics

Satellite METEOR 2-8 DEB at a glance.

Uptime

15970

Days in orbit

Revolutions

≈ 14.3

Per day

Orbit

LEO

Low Earth Orbit

Inclination

82.5

Latest

Satellite identification and parameters

Extended collection of information and parameters for METEOR 2-8 DEB.

Object identification

Identified? True

Debris? True

Object name: METEOR 2-8 DEB

International designator: 1982-025U

Object number (NORAD): 36334

Object ID (CCSDS): 36334

Country: COMMONWEALTH OF INDEPENDENT STATES (CIS)

Current information (Y/N): Y

RCS size: SMALL

Orbital parameters

Period: 100.962 minutes

Inclination: 82.5132 deg

SMA: 7182.35 km

Apoapsis: 820.433 km

Periapsis: 787.998 km

RAAN: 344.848 deg

Eccentricy: 0.00225801

Argument of periapsis: 284.548 deg

Mean anomaly: 75.3199 deg

Mean motion: 14.26273721 rev/day

Mean motion (dot): 0.00004444 rev/day2

B* drag term: 0.0018417931 1/REarth

Two-line elements (TLE)

Creation date: Dec. 11, 2025, 10:54 a.m.

Reference frame: TEME

Reference center: EARTH

Epoch: Dec. 11, 2025, 7:16 a.m. UTC

TLE line 0: 0 METEOR 2-8 DEB

TLE line 1: 1 36334U 82025U 25345.30306039 .00004444 00000-0 18418-2 0 9999

TLE line 2: 2 36334 82.5132 344.8480 0022580 284.5480 75.3199 14.26273721615103

Live tracking on map

Real-time ground track for satellite METEOR 2-8 DEB.

In-orbit conjunctions

A list of the most updated potential collisions computed for object METEOR 2-8 DEB.

Target Orbit TCA Probability of collision Miss distance Type
CZ-6A DEB SSO 2025-09-03 04:14:30 0.0005285547 39.0 (m) DEBRIS
FENGYUN 1C DEB SSO 2025-07-24 10:24:43 0.0001470868 191.0 (m) DEBRIS
ORBCOMM FM 3 SSO 2025-05-14 07:42:23 0.0002003399 527.0 (m) PAYLOAD
DMSP 5D-2 F13 DEB SSO 2024-07-27 06:24:35 0.0002122937 76.0 (m) DEBRIS

Associated space launch

Second generation soviet meteorological satellite

METEOR 2-8 DEB was lifted into orbit during the mission ‘Tsiklon-3 | Meteor-2 8’, on board a Tsiklon-3 space rocket.

The launch took place on March 25, 1982, 9:50 a.m. from 32/1.

For more information about the launch, click the button.

Launch to space Tsiklon-3 | Meteor-2 8
Tsiklon-3 | Meteor-2 8

Agency: N/A

Status: Launch Successful

Launch date: March 25, 1982, 9:50 a.m. UTC

Rocket: Tsiklon-3

Launch pad: 32/1

Location: Plesetsk Cosmodrome, Russian Federation

...

Latest news about this satellite

There are no fresh news available about this satellite. Check back as we update our databases every day.


Newsletter sign-up

Weekly statistics, charts and insights to help you stay on top of the space industry.